Needles, CA

3:38 PM PST on November 20, 2017 (GMT -0800)
Needles

Weather History for KEED - July, 2013

Change the Weather History Date:

Thursday, July 18, 2013

  Actual Average Record
Temperature  
Mean Temperature 100 °F 97 °F  
Max Temperature 113 °F 109 °F 124 °F (2005)
Min Temperature 89 °F 85 °F 57 °F (1987)
Degree Days  
Heating Degree Days 0    
Cooling Degree Days 35    
Growing Degree Days 50 (Base 50)    
Moisture  
Dew Point 54 °F    
Average Humidity 21    
Maximum Humidity 30    
Minimum Humidity 13    
Precipitation  
Precipitation 0.00 in 0.01 in 0.39 in (1953)
Month to date precipitation 0.08  
Year to date precipitation 2.46  
Sea Level Pressure  
Sea Level Pressure 29.69 in    
Wind  
Wind Speed 5 mph (ESE)    
Max Wind Speed 26 mph    
Max Gust Speed 32 mph    
Visibility 10 miles    
Events      
T = Trace of Precipitation, MM = Missing Value Source: NWS Daily Summary

Daily Weather History Graph

Daily Weather History Graph

Search for Another Location

Airport or City:

Trip Planner

Search our weather history database for the weather conditions in past years. The results will help you decide how hot, cold, wet, or windy it might be!

Date:

Astronomy

Jul. 18, 2013 Rise Set
Actual Time 5:38 AM PDT 7:50 PM PDT
Civil Twilight 5:09 AM PDT 8:19 PM PDT
Nautical Twilight 4:34 AM PDT 8:54 PM PDT
Astronomical Twilight 3:56 AM PDT 9:31 PM PDT
Moon 3:53 PM PDT (7/18) 1:30 AM PDT (7/18)
Length of Visible Light 15h 09m
Length of Day
14h 11m
Waxing Gibbous, 78% of the Moon is Illuminated
Jul 18
Waxing Gibbous
Jul 22
Full
Jul 29
Last Quarter
Aug 6
New
Aug 14
First Quarter

Hourly Weather History & Observations

Time (PDT) Temp. Heat Index Dew Point Humidity Pressure Visibility Wind Dir Wind Speed Gust Speed Precip Events Conditions
12:56 AM 97.0 °F - 52.0 °F 22% 29.73 in 10.0 mi Calm Calm - N/A   Clear
1:56 AM 93.9 °F - 42.1 °F 17% 29.73 in 10.0 mi West 5.8 mph - N/A   Clear
2:56 AM 93.9 °F - 45.0 °F 18% 29.72 in 10.0 mi Calm Calm - N/A   Clear
3:56 AM 91.0 °F - 46.9 °F 22% 29.72 in 10.0 mi Calm Calm - N/A   Clear
4:56 AM 90.0 °F 87.9 °F 55.0 °F 30% 29.73 in 10.0 mi NW 4.6 mph - N/A   Clear
5:56 AM 89.1 °F 86.7 °F 53.1 °F 29% 29.75 in 10.0 mi WNW 3.5 mph - N/A   Clear
6:56 AM 93.9 °F 92.0 °F 55.0 °F 27% 29.76 in 10.0 mi Calm Calm - N/A   Clear
7:56 AM 96.1 °F 95.2 °F 57.9 °F 28% 29.78 in 10.0 mi ENE 4.6 mph - N/A   Clear
8:56 AM 99.0 °F 98.6 °F 59.0 °F 26% 29.78 in 10.0 mi East 5.8 mph - N/A   Clear
9:56 AM 100.9 °F 100.5 °F 57.9 °F 24% 29.77 in 10.0 mi ESE 8.1 mph - N/A   Clear
10:56 AM 102.9 °F 102.4 °F 57.0 °F 22% 29.76 in 10.0 mi Calm Calm - N/A   Partly Cloudy
11:56 AM 107.1 °F 105.4 °F 54.0 °F 17% 29.73 in 10.0 mi East 9.2 mph - N/A   Partly Cloudy
12:56 PM 109.0 °F 107.4 °F 53.1 °F 16% 29.71 in 10.0 mi WSW 5.8 mph - N/A   Partly Cloudy
1:56 PM 111.0 °F 109.3 °F 53.1 °F 15% 29.68 in 10.0 mi NW 5.8 mph - N/A   Scattered Clouds
2:56 PM 111.9 °F - 52.0 °F 14% 29.64 in 10.0 mi Variable 5.8 mph - N/A   Mostly Cloudy
3:56 PM 111.9 °F - 51.1 °F 13% 29.60 in 10.0 mi SE 6.9 mph - N/A   Overcast
4:56 PM 111.9 °F - 50.0 °F 13% 29.59 in 10.0 mi Calm Calm - N/A   Overcast
5:56 PM 109.0 °F 108.1 °F 55.9 °F 17% 29.59 in 10.0 mi ESE 18.4 mph 28.8 mph N/A   Partly Cloudy
6:06 PM 107.6 °F 107.5 °F 57.2 °F 19% 29.72 in 10.0 mi ESE 23.0 mph 31.1 mph N/A   Partly Cloudy
6:56 PM 104.0 °F 103.4 °F 57.0 °F 21% 29.61 in 10.0 mi SE 26.5 mph 32.2 mph N/A   Scattered Clouds
7:56 PM 106.0 °F - 52.0 °F 17% 29.62 in 10.0 mi SSE 13.8 mph - N/A   Scattered Clouds
8:56 PM 102.0 °F 100.6 °F 55.0 °F 21% 29.64 in 10.0 mi ESE 13.8 mph - N/A   Partly Cloudy
9:56 PM 100.0 °F 99.2 °F 57.0 °F 24% 29.65 in 10.0 mi East 12.7 mph - N/A   Clear
10:56 PM 100.0 °F 98.8 °F 55.9 °F 23% 29.65 in 10.0 mi Calm Calm - N/A   Partly Cloudy
11:56 PM 99.0 °F 97.7 °F 55.9 °F 24% 29.65 in 10.0 mi WNW 5.8 mph - N/A   Partly Cloudy